Lid_Strength_Index
2 2 1 1 1 2 2 3 4 4 4 6 8 8 8 8 8 8 7 7 4 2 0 -1 -1 -1 -1 -1 -1 -1 -1 -1 0 1 1 1 0 0 -1 -0 -0 -0 -1
1 2 2 2 2 1 1 3 4 4 5 6 7 8 8 8 8 8 8 7 5 3 1 -1 -1 -1 -1 -1 -1 -1 -1 -2 -1 1 1 1 1 1 1 0 1 1 1
1 2 2 2 2 2 3 4 5 5 6 7 7 8 8 8 8 8 8 7 6 5 4 1 -0 -1 -2 -2 -2 -1 -2 -1 -1 0 2 2 1 1 1 1 2 2 2
3 3 3 3 3 3 4 5 6 6 6 7 7 7 8 8 8 8 8 8 7 7 5 4 2 1 0 -1 -2 -2 -1 -1 -0 0 0 2 2 1 1 2 2 2 2
4 5 5 5 4 5 5 6 7 7 7 8 9 8 9 8 8 9 8 9 8 7 7 6 5 5 3 1 -0 -1 -2 -2 -1 -1 1 2 2 2 2 2 2 2 2
7 7 7 6 6 6 6 6 7 8 9 10 10 10 9 9 9 9 9 9 9 9 8 8 7 6 6 4 2 -0 -1 -2 -2 -1 -1 1 2 2 2 2 2 2 2
10 9 9 9 8 8 9 8 8 8 9 9 9 8 8 9 10 10 10 10 10 10 9 9 8 8 8 6 5 3 0 -1 -2 -2 -1 -0 1 1 2 2 2 2 2
12 11 11 11 11 10 10 10 10 9 9 10 10 10 10 9 10 10 10 11 11 11 10 10 10 10 9 8 8 5 4 1 -0 -1 -2 -1 -0 1 1 2 2 2 2
13 13 13 13 12 12 12 11 11 11 11 10 10 11 11 12 12 10 10 10 10 10 10 11 10 10 10 9 9 8 7 5 3 1 0 -1 -1 -0 1 1 2 2 2
14 14 13 14 14 13 14 13 12 12 10 12 10 10 10 12 13 13 10 9 10 10 10 9 10 10 10 10 10 9 8 7 6 5 3 1 0 -1 -1 1 1 2 2
14 14 14 14 14 14 14 14 14 14 13 13 12 11 11 11 12 13 13 12 10 9 9 10 10 10 10 10 10 10 9 8 7 6 5 4 3 1 -1 -0 1 1 2
15 15 15 14 15 15 15 14 14 15 15 15 14 14 14 13 14 13 14 13 13 11 10 10 10 10 10 10 10 10 9 8 7 7 6 5 4 3 2 -0 0 1 2
16 16 15 15 15 15 15 14 14 15 15 15 14 14 14 14 13 13 13 14 14 13 12 10 10 9 11 10 11 12 11 10 9 8 7 6 5 4 2 0 1 1 2
15 15 15 16 15 15 15 14 14 14 14 14 14 14 13 13 13 13 14 14 15 14 13 12 10 9 9 10 11 11 10 11 10 9 8 7 6 4 2 1 1 2 2
15 15 15 15 15 14 14 14 14 15 14 14 14 14 14 13 13 13 13 13 15 17 16 13 12 9 9 9 9 10 10 11 10 9 9 8 7 6 3 2 3 3 3
14 14 14 14 14 14 14 14 15 15 15 15 14 15 14 14 14 13 13 13 13 15 17 14 13 12 10 10 10 10 10 11 10 10 9 9 8 7 5 4 4 4 3
14 14 14 14 14 15 14 15 15 15 15 15 14 14 14 14 14 14 14 14 14 14 16 15 14 12 12 12 11 10 9 10 11 11 10 9 9 8 7 6 5 4 4
14 14 14 15 15 15 15 15 15 15 15 15 14 14 14 14 14 14 14 14 14 14 15 17 15 14 13 12 12 12 11 10 10 10 10 10 9 9 8 7 6 5 5
14 15 15 15 15 15 15 15 15 15 15 15 15 15 15 15 15 14 14 15 14 14 14 15 16 14 14 13 13 12 11 11 10 9 8 9 9 9 9 8 7 7 7
15 15 15 16 16 16 16 15 14 14 14 14 14 14 14 14 15 14 14 14 14 14 14 15 15 15 15 14 13 13 13 11 11 11 10 9 9 9 9 9 8 8 7
16 16 16 16 16 16 14 13 13 13 13 13 13 13 13 13 12 13 13 14 14 14 15 15 16 15 15 15 15 13 13 12 11 10 11 10 10 10 9 9 9 9 7
17 17 17 17 17 15 13 11 11 12 13 14 14 14 14 14 13 13 12 12 13 14 16 16 16 16 16 16 15 16 15 15 16 10 11 11 10 10 10 9 9 8 7
17 17 17 16 16 16 13 11 11 12 13 14 14 14 15 14 14 15 14 13 13 13 12 14 15 15 15 15 15 16 17 17 17 15 13 14 10 11 10 10 9 8 7
17 17 17 17 16 16 13 12 11 13 14 14 14 14 15 15 15 14 14 14 14 14 13 13 14 14 13 13 13 13 14 15 15 14 13 16 12 12 10 9 9 8 7
17 18 16 17 18 18 14 12 12 13 14 14 14 14 14 14 13 12 12 13 13 12 11 10 10 10 9 9 10 12 14 15 17 15 13 14 13 13 12 11 9 9 8
17 17 18 18 18 19 16 13 12 13 14 14 13 13 12 11 10 10 11 12 13 13 12 13 12 11 11 11 10 11 12 15 16 17 13 14 14 13 14 10 10 9 9